This demonstration page uses our WeatherBlox Daily Observations layout. Learn more.

39.92423, -83.80882

Hourly Observations for December 21, 2017

Temp ( °F °C ) Dew Point ( °F °C ) Humidity (%) Winds ( mph kmh ) Pressure ( in mb ) Visibility ( mi km ) Precip ( " mm )
12:56 am 00:56 Cloudy 29 -1.7 24 -4.4 82 82 E 7 11 30.1 1019 10 16.0934 0 0
1:56 am 01:56 Mostly Clear 26 -3.3 22 -5.6 84 84 E 8 13 30.09 1019 10 16.0934 0 0
2:56 am 02:56 Cloudy 28 -2.2 23 -5 81 81 E 9 15 30.09 1019 10 16.0934 0 0
3:56 am 03:56 Mostly Cloudy 28 -2.2 23 -5 81 81 E 7 11 30.1 1019 10 16.0934 0 0
4:56 am 04:56 Clear 27 -2.8 22 -5.6 81 81 E 9 15 30.09 1019 10 16.0934 0 0
5:56 am 05:56 Partly Cloudy 27 -2.8 22 -5.6 81 81 E 10 17 30.11 1020 10 16.0934 0 0
6:56 am 06:56 Clear 27 -2.8 22 -5.6 81 81 E 12 19 30.12 1020 10 16.0934 0 0
7:56 am 07:56 Sunny 27 -2.8 22 -5.6 81 81 E 10 17 30.13 1020 10 16.0934 0 0
8:56 am 08:56 Partly Cloudy 29 -1.7 23 -5 78 78 E 9 15 30.14 1021 10 16.0934 0 0
9:56 am 09:56 Sunny 33 0.6 23 -5 66 66 E 12 19 30.14 1021 10 16.0934 0 0
10:56 am 10:56 Sunny 36 2.2 24 -4.4 62 62 E 13 20 30.14 1021 10 16.0934 0 0
11:56 am 11:56 Sunny 39 3.9 25 -3.9 57 57 E 12 19 30.11 1020 10 16.0934 0 0
12:56 pm 12:56 Sunny 45 7.2 25 -3.9 46 46 ESE 18 30 30.05 1018 10 16.0934 0 0
1:56 pm 13:56 Sunny 46 7.8 25 -3.9 44 44 ESE 10 17 30.04 1017 10 16.0934 0 0
2:56 pm 14:56 Sunny 47 8.3 25 -3.9 42 42 SE 13 20 30.02 1017 10 16.0934 0 0
3:56 pm 15:56 Mostly Sunny 47 8.3 24 -4.4 41 41 ESE 8 13 30.01 1016 10 16.0934 0 0
4:56 pm 16:56 Cloudy 46 7.8 25 -3.9 44 44 E 7 11 30.01 1016 10 16.0934 0 0
5:56 pm 17:56 Cloudy 41 5 26 -3.3 55 55 E 8 13 30.02 1017 10 16.0934 0 0
6:56 pm 18:56 Mostly Clear 37 2.8 25 -3.9 62 62 E 8 13 30.01 1016 10 16.0934 0 0
7:56 pm 19:56 Clear 37 2.8 25 -3.9 62 62 ESE 8 13 30 1016 10 16.0934 0 0
8:56 pm 20:56 Clear 40 4.4 24 -4.4 53 53 SE 12 19 29.98 1015 10 16.0934 0 0
9:54 pm 21:54 Mostly Cloudy 43 6 27 -3 53 53 S 5 7 29.97 1015 10 16.0934 0 0
9:56 pm 21:56 Mostly Cloudy 42 5.6 26 -3.3 53 53 SSW 3 6 29.97 1015 10 16.0934 0 0
10:25 pm 22:25 Partly Cloudy 43 6 30 -1 61 61 S 6 9 29.97 1015 10 16.0934 0 0
10:36 pm 22:36 Mostly Cloudy 43 6 32 0 66 66 S 6 9 29.97 1015 10 16.0934 0 0
10:56 pm 22:56 Cloudy 45 7.2 35 1.7 68 68 S 8 13 29.96 1014 10 16.0934 0 0
11:56 pm 23:56 Cloudy 48 8.9 42 5.6 80 80 SSW 8 13 29.94 1014 10 16.0934 0 0

Powered by AerisWeather